This demonstration page uses our WeatherBlox Daily Observations layout. Learn more.

Left ArrowRight Arrow

41.12389, -100.76542

Hourly Observations for September 10, 2017

Temp ( °F °C ) Dew Point ( °F °C ) Humidity (%) Winds ( mph kmh ) Pressure ( in mb ) Visibility ( mi km ) Precip ( " mm )
12:53 am 00:53 Clear 68 20 52 11.1 57 57 ESE 10 17 29.98 1015 10 16 0.00 0.00
1:53 am 01:53 Clear 67 19.4 52 11.1 59 59 SSE 15 24 29.98 1015 10 16 0.00 0.00
2:53 am 02:53 Clear 67 19.4 51 10.6 57 57 SSE 8 13 29.99 1016 10 16 0.00 0.00
3:53 am 03:53 Clear 66 18.9 52 11.1 61 61 SSE 9 15 29.98 1015 10 16 0.00 0.00
4:53 am 04:53 Clear 65 18.3 52 11.1 63 63 SSE 10 17 29.98 1015 10 16 0.00 0.00
5:53 am 05:53 Clear 64 17.8 52 11.1 65 65 S 12 19 29.98 1015 10 16 0.00 0.00
6:53 am 06:53 Clear 64 17.8 51 10.6 63 63 SSE 12 19 29.99 1016 10 16 0.00 0.00
7:53 am 07:53 Sunny 64 17.8 51 10.6 63 63 S 13 20 30.02 1017 10 16 0.00 0.00
8:53 am 08:53 Sunny 65 18.3 52 11.1 63 63 S 8 13 30.03 1017 10 16 0.00 0.00
9:53 am 09:53 Sunny 70 21.1 54 12.2 57 57 S 15 24 30.05 1018 10 16 0.00 0.00
10:53 am 10:53 Sunny 71 21.7 55 12.8 57 57 ESE 7 11 30.04 1017 10 16 0.00 0.00
11:53 am 11:53 Sunny 76 24.4 56 13.3 50 50 S 15 24 30.02 1017 10 16 0.00 0.00
12:53 pm 12:53 Sunny 78 25.6 57 13.9 48 48 S 12 19 30.03 1017 10 16 0.00 0.00
1:53 pm 13:53 Sunny 82 27.8 57 13.9 42 42 S 9 15 30.02 1017 10 16 0.00 0.00
2:53 pm 14:53 Sunny 86 30 58 14.4 39 39 S 14 22 29.99 1016 10 16 0.00 0.00
3:53 pm 15:53 Sunny 88 31.1 56 13.3 34 34 S 15 24 29.98 1015 10 16 0.00 0.00
4:53 pm 16:53 Sunny 89 31.7 56 13.3 33 33 S 14 22 29.97 1015 10 16 0.00 0.00
5:53 pm 17:53 Sunny 88 31.1 56 13.3 34 34 S 10 17 29.97 1015 10 16 0.00 0.00
6:53 pm 18:53 Sunny 85 29.4 56 13.3 37 37 S 9 15 29.97 1015 10 16 0.00 0.00
7:53 pm 19:53 Sunny 78 25.6 57 13.9 48 48 S 6 9 29.99 1016 10 16 0.00 0.00
8:53 pm 20:53 Clear 71 21.7 59 15 66 66 ESE 5 7 30.02 1017 10 16 0.00 0.00
9:53 pm 21:53 Clear 66 18.9 58 14.4 75 75 ESE 8 13 30.04 1017 10 16 0.00 0.00
10:53 pm 22:53 Clear 65 18.3 57 13.9 76 76 SE 7 11 30.05 1018 10 16 0.00 0.00
11:53 pm 23:53 Clear 70 21.1 56 13.3 61 61 SE 6 9 30.04 1017 10 16 0.00 0.00

Powered by AerisWeather